JLY7168 SBPV-SBRB

Flight info

Callsign JLY7168
Flight time 0h 56m
Altitude 30000
Route OSATU UZ74 BIGOD
Aircraft A320/M-SDE3FGHIRWY/LB1

Departure

Time 2026-05-06 02:38
Airport Governador Jorge Teixeira de Oliveira International Airport (SBPV)

Arrival

Time 2026-05-06 03:34
Airport Rio Branco-Plácido de Castro International Airport (SBRB)
Time Latitude Longitude Altitude Speed Heading
2026-05-06 02:23 -8.71420 -63.89930 300 ft 0 kts 86°
2026-05-06 02:31 -8.71421 -63.89949 300 ft 4 kts 86°
2026-05-06 02:32 -8.71423 -63.89976 300 ft 4 kts 86°
2026-05-06 02:32 -8.71424 -63.90003 299 ft 4 kts 88°
2026-05-06 02:32 -8.71424 -63.90030 300 ft 4 kts 107°
2026-05-06 02:32 -8.71411 -63.90052 302 ft 4 kts 150°
2026-05-06 02:33 -8.71394 -63.90058 300 ft 1 kts 177°
2026-05-06 02:33 -8.71391 -63.90058 300 ft 0 kts 177°
2026-05-06 02:35 -8.71424 -63.90056 300 ft 13 kts 177°
2026-05-06 02:35 -8.71533 -63.90050 299 ft 17 kts 176°
2026-05-06 02:35 -8.71655 -63.90042 299 ft 19 kts 176°
2026-05-06 02:36 -8.71783 -63.90034 302 ft 15 kts 176°
2026-05-06 02:36 -8.71887 -63.90048 300 ft 16 kts 213°
2026-05-06 02:36 -8.71969 -63.90124 299 ft 16 kts 246°
2026-05-06 02:36 -8.71925 -63.90171 301 ft 9 kts 355°
2026-05-06 02:37 -8.71911 -63.90171 301 ft 0 kts 357°
2026-05-06 02:37 -8.71907 -63.90172 300 ft 5 kts 357°
2026-05-06 02:37 -8.71627 -63.90188 299 ft 80 kts 356°
2026-05-06 02:37 -8.70856 -63.90234 304 ft 141 kts 356°
2026-05-06 02:38 -8.69770 -63.90299 656 ft 158 kts 356°
2026-05-06 02:38 -8.68674 -63.90365 1268 ft 160 kts 358°
2026-05-06 02:38 -8.67482 -63.90434 1657 ft 180 kts 359°
2026-05-06 02:38 -8.66161 -63.90506 2005 ft 201 kts 359°
2026-05-06 02:39 -8.64672 -63.90612 2242 ft 231 kts 352°
2026-05-06 02:39 -8.63179 -63.91416 2581 ft 263 kts 312°
2026-05-06 02:39 -8.62461 -63.93147 3261 ft 276 kts 272°
2026-05-06 02:39 -8.62914 -63.95009 4139 ft 280 kts 238°
2026-05-06 02:40 -8.64285 -63.96334 4923 ft 280 kts 204°
2026-05-06 02:40 -8.66144 -63.96882 5764 ft 281 kts 188°
2026-05-06 02:40 -8.67999 -63.97537 6583 ft 289 kts 213°
2026-05-06 02:40 -8.69303 -63.99088 7379 ft 295 kts 242°
2026-05-06 02:41 -8.70028 -64.01042 8191 ft 300 kts 253°
2026-05-06 02:41 -8.70559 -64.03097 9020 ft 303 kts 256°
2026-05-06 02:41 -8.71088 -64.05170 9829 ft 307 kts 254°
2026-05-06 02:41 -8.71700 -64.07272 10348 ft 321 kts 251°
2026-05-06 02:42 -8.72445 -64.09485 10559 ft 344 kts 249°
2026-05-06 02:42 -8.73303 -64.11779 10889 ft 360 kts 248°
2026-05-06 02:42 -8.74244 -64.14149 11492 ft 367 kts 247°
2026-05-06 02:42 -8.75225 -64.16548 12163 ft 371 kts 246°
2026-05-06 02:43 -8.76221 -64.18969 12841 ft 375 kts 246°
2026-05-06 02:43 -8.77225 -64.21414 13509 ft 379 kts 246°
2026-05-06 02:43 -8.78233 -64.23894 14130 ft 382 kts 247°
2026-05-06 02:43 -8.79228 -64.26365 14920 ft 379 kts 247°
2026-05-06 02:44 -8.80220 -64.28838 15565 ft 381 kts 247°
2026-05-06 02:44 -8.81219 -64.31326 16160 ft 384 kts 247°
2026-05-06 02:44 -8.82214 -64.33804 16742 ft 387 kts 247°
2026-05-06 02:44 -8.83229 -64.36333 17295 ft 390 kts 247°
2026-05-06 02:45 -8.84252 -64.38890 17876 ft 394 kts 247°
2026-05-06 02:45 -8.85285 -64.41469 18412 ft 398 kts 247°
2026-05-06 02:45 -8.86330 -64.44070 18890 ft 401 kts 247°
2026-05-06 02:45 -8.87380 -64.46691 19378 ft 404 kts 247°
2026-05-06 02:46 -8.88437 -64.49335 19874 ft 407 kts 247°
2026-05-06 02:46 -8.89501 -64.51996 20367 ft 410 kts 247°
2026-05-06 02:46 -8.90511 -64.54700 20854 ft 413 kts 253°
2026-05-06 02:46 -8.91315 -64.57456 21335 ft 416 kts 253°
2026-05-06 02:47 -8.92137 -64.60267 21821 ft 419 kts 253°
2026-05-06 02:47 -8.92967 -64.63098 22303 ft 422 kts 253°
2026-05-06 02:47 -8.93807 -64.65956 22783 ft 425 kts 253°
2026-05-06 02:47 -8.94654 -64.68825 23264 ft 428 kts 253°
2026-05-06 02:48 -8.95507 -64.71719 23699 ft 431 kts 253°
2026-05-06 02:48 -8.96359 -64.74628 24081 ft 433 kts 253°
2026-05-06 02:48 -8.97215 -64.77558 24473 ft 435 kts 253°
2026-05-06 02:48 -8.98077 -64.80497 24844 ft 437 kts 253°
2026-05-06 02:49 -8.98947 -64.83454 25211 ft 440 kts 253°
2026-05-06 02:49 -8.99812 -64.86388 25576 ft 442 kts 253°
2026-05-06 02:49 -9.00690 -64.89373 25936 ft 444 kts 253°
2026-05-06 02:49 -9.01571 -64.92374 26287 ft 446 kts 253°
2026-05-06 02:50 -9.02452 -64.95391 26637 ft 448 kts 253°
2026-05-06 02:50 -9.03335 -64.98420 26981 ft 451 kts 254°
2026-05-06 02:50 -9.04223 -65.01467 27297 ft 453 kts 254°
2026-05-06 02:50 -9.05120 -65.04532 27640 ft 455 kts 253°
2026-05-06 02:51 -9.06009 -65.07565 27949 ft 457 kts 254°
2026-05-06 02:51 -9.06913 -65.10650 28271 ft 459 kts 253°
2026-05-06 02:51 -9.07824 -65.13757 28583 ft 461 kts 254°
2026-05-06 02:51 -9.08737 -65.16872 28888 ft 463 kts 254°
2026-05-06 02:52 -9.09651 -65.20011 29191 ft 466 kts 254°
2026-05-06 02:52 -9.10567 -65.23162 29487 ft 468 kts 254°
2026-05-06 02:52 -9.11484 -65.26326 29785 ft 470 kts 254°
2026-05-06 02:52 -9.12408 -65.29504 29990 ft 472 kts 254°
2026-05-06 02:53 -9.13327 -65.32651 30031 ft 458 kts 254°
2026-05-06 02:53 -9.14209 -65.35659 30034 ft 447 kts 254°
2026-05-06 02:53 -9.15089 -65.38659 30033 ft 443 kts 254°
2026-05-06 02:54 -9.16828 -65.44628 30036 ft 442 kts 254°
2026-05-06 02:54 -9.18559 -65.50587 30034 ft 441 kts 254°
2026-05-06 02:55 -9.20295 -65.56551 30034 ft 442 kts 254°
2026-05-06 02:55 -9.22027 -65.62510 30034 ft 441 kts 254°
2026-05-06 02:56 -9.23741 -65.68430 30029 ft 441 kts 254°
2026-05-06 02:56 -9.25475 -65.74382 30032 ft 441 kts 254°
2026-05-06 02:57 -9.27203 -65.80333 30033 ft 441 kts 254°
2026-05-06 02:57 -9.28934 -65.86283 30026 ft 440 kts 254°
2026-05-06 02:58 -9.30647 -65.92189 30021 ft 440 kts 254°
2026-05-06 02:58 -9.32370 -65.98138 30029 ft 440 kts 254°
2026-05-06 02:59 -9.34090 -66.04080 30021 ft 440 kts 254°
2026-05-06 02:59 -9.35803 -66.10030 30028 ft 440 kts 254°
2026-05-06 03:00 -9.37520 -66.15973 30027 ft 440 kts 254°
2026-05-06 03:00 -9.39227 -66.21872 30021 ft 439 kts 254°
2026-05-06 03:01 -9.40935 -66.27813 30029 ft 439 kts 254°
2026-05-06 03:01 -9.42639 -66.33746 30016 ft 439 kts 254°
2026-05-06 03:02 -9.44356 -66.39677 30024 ft 439 kts 254°
2026-05-06 03:02 -9.46055 -66.45565 30031 ft 438 kts 254°
2026-05-06 03:03 -9.47762 -66.51492 30027 ft 438 kts 254°
2026-05-06 03:03 -9.49466 -66.57414 30022 ft 438 kts 254°
2026-05-06 03:04 -9.51171 -66.63335 30029 ft 438 kts 254°
2026-05-06 03:04 -9.52866 -66.69251 30024 ft 437 kts 254°
2026-05-06 03:05 -9.54551 -66.75129 30023 ft 437 kts 254°
2026-05-06 03:05 -9.56283 -66.81174 30038 ft 457 kts 254°
2026-05-06 03:06 -9.58086 -66.87451 30031 ft 467 kts 253°
2026-05-06 03:06 -9.59897 -66.93764 29816 ft 460 kts 254°
2026-05-06 03:06 -9.60777 -66.96841 28801 ft 451 kts 254°
2026-05-06 03:07 -9.61631 -66.99837 27822 ft 445 kts 254°
2026-05-06 03:07 -9.62482 -67.02823 26871 ft 438 kts 254°
2026-05-06 03:07 -9.63324 -67.05771 25952 ft 432 kts 254°
2026-05-06 03:07 -9.64157 -67.08675 25071 ft 426 kts 254°
2026-05-06 03:08 -9.64979 -67.11541 24212 ft 421 kts 254°
2026-05-06 03:08 -9.65788 -67.14377 23357 ft 416 kts 254°
2026-05-06 03:08 -9.66586 -67.17176 22480 ft 410 kts 254°
2026-05-06 03:08 -9.67367 -67.19907 21951 ft 395 kts 254°
2026-05-06 03:09 -9.68304 -67.22465 21473 ft 381 kts 244°
2026-05-06 03:09 -9.69432 -67.24806 21003 ft 368 kts 244°
2026-05-06 03:09 -9.70535 -67.27106 20545 ft 357 kts 244°
2026-05-06 03:09 -9.71600 -67.29336 20101 ft 346 kts 244°
2026-05-06 03:10 -9.72643 -67.31521 19668 ft 344 kts 244°
2026-05-06 03:10 -9.73681 -67.33695 19236 ft 341 kts 244°
2026-05-06 03:10 -9.74713 -67.35851 18814 ft 340 kts 244°
2026-05-06 03:10 -9.75751 -67.38018 18385 ft 342 kts 244°
2026-05-06 03:11 -9.76790 -67.40196 17912 ft 344 kts 244°
2026-05-06 03:11 -9.77829 -67.42376 17487 ft 343 kts 244°
2026-05-06 03:11 -9.78853 -67.44525 17070 ft 343 kts 244°
2026-05-06 03:11 -9.79892 -67.46700 16641 ft 343 kts 244°
2026-05-06 03:12 -9.80595 -67.48171 16357 ft 343 kts 244°
2026-05-06 03:12 -9.81422 -67.49902 16025 ft 343 kts 244°
2026-05-06 03:12 -9.82463 -67.52079 15602 ft 343 kts 244°
2026-05-06 03:12 -9.83504 -67.54255 15179 ft 343 kts 244°
2026-05-06 03:13 -9.84545 -67.56431 14762 ft 343 kts 244°
2026-05-06 03:13 -9.85587 -67.58612 14343 ft 343 kts 244°
2026-05-06 03:13 -9.86624 -67.60788 13921 ft 343 kts 244°
2026-05-06 03:13 -9.87663 -67.62967 13457 ft 343 kts 244°
2026-05-06 03:14 -9.88698 -67.65138 13026 ft 341 kts 244°
2026-05-06 03:14 -9.89727 -67.67299 12594 ft 339 kts 244°
2026-05-06 03:14 -9.90737 -67.69416 12165 ft 337 kts 244°
2026-05-06 03:14 -9.91758 -67.71551 11734 ft 336 kts 244°
2026-05-06 03:15 -9.92771 -67.73672 11297 ft 334 kts 244°
2026-05-06 03:15 -9.93781 -67.75790 10858 ft 333 kts 244°
2026-05-06 03:15 -9.94786 -67.77899 10416 ft 331 kts 244°
2026-05-06 03:15 -9.95784 -67.79998 10074 ft 327 kts 244°
2026-05-06 03:16 -9.96752 -67.82035 9947 ft 314 kts 244°
2026-05-06 03:16 -9.97687 -67.83998 9768 ft 305 kts 244°
2026-05-06 03:16 -9.98591 -67.85901 9403 ft 302 kts 244°
2026-05-06 03:16 -9.99503 -67.87819 8961 ft 302 kts 244°
2026-05-06 03:17 -10.00434 -67.89773 8162 ft 314 kts 244°
2026-05-06 03:17 -10.01397 -67.91793 7354 ft 319 kts 244°
2026-05-06 03:17 -10.02355 -67.93805 6561 ft 315 kts 244°
2026-05-06 03:17 -10.03298 -67.95792 5758 ft 311 kts 244°
2026-05-06 03:18 -10.04216 -67.97761 4997 ft 306 kts 248°
2026-05-06 03:18 -10.04531 -67.99822 4480 ft 290 kts 279°
2026-05-06 03:18 -10.03876 -68.01627 4326 ft 264 kts 306°
2026-05-06 03:18 -10.02587 -68.02847 4016 ft 256 kts 333°
2026-05-06 03:19 -10.00933 -68.03378 3855 ft 242 kts 349°
2026-05-06 03:19 -9.99338 -68.03721 3822 ft 228 kts 351°
2026-05-06 03:19 -9.97799 -68.03742 3688 ft 217 kts 11°
2026-05-06 03:19 -9.96399 -68.03258 3521 ft 210 kts 30°
2026-05-06 03:20 -9.94448 -68.01180 3072 ft 204 kts 57°
2026-05-06 03:20 -9.93684 -67.99984 2843 ft 200 kts 57°
2026-05-06 03:20 -9.92947 -67.98832 2569 ft 195 kts 57°
2026-05-06 03:21 -9.92223 -67.97700 2319 ft 188 kts 56°
2026-05-06 03:21 -9.91527 -67.96613 2080 ft 177 kts 56°
2026-05-06 03:21 -9.90899 -67.95631 1867 ft 156 kts 55°
2026-05-06 03:21 -9.90336 -67.94752 1675 ft 142 kts 56°
2026-05-06 03:22 -9.89809 -67.93930 1496 ft 137 kts 55°
2026-05-06 03:22 -9.89286 -67.93114 1333 ft 138 kts 56°
2026-05-06 03:22 -9.88763 -67.92298 1157 ft 138 kts 57°
2026-05-06 03:22 -9.88241 -67.91483 978 ft 138 kts 56°
2026-05-06 03:23 -9.87722 -67.90663 775 ft 138 kts 57°
2026-05-06 03:23 -9.87217 -67.89878 643 ft 125 kts 58°
2026-05-06 03:23 -9.86744 -67.89141 744 ft 141 kts 58°
2026-05-06 03:23 -9.86170 -67.88160 1164 ft 175 kts 58°
2026-05-06 03:24 -9.85497 -67.87065 1731 ft 194 kts 56°
2026-05-06 03:24 -9.84750 -67.85840 2248 ft 210 kts 61°
2026-05-06 03:24 -9.84370 -67.84390 2814 ft 220 kts 91°
2026-05-06 03:24 -9.84821 -67.82927 2967 ft 221 kts 125°
2026-05-06 03:25 -9.86011 -67.81969 3003 ft 222 kts 159°
2026-05-06 03:25 -9.87535 -67.81820 3008 ft 224 kts 193°
2026-05-06 03:25 -9.88897 -67.82542 3005 ft 224 kts 226°
2026-05-06 03:25 -9.89929 -67.83707 3008 ft 226 kts 229°
2026-05-06 03:26 -9.90977 -67.84897 3008 ft 226 kts 229°
2026-05-06 03:26 -9.92027 -67.86079 3009 ft 226 kts 228°
2026-05-06 03:26 -9.93078 -67.87260 3006 ft 226 kts 228°
2026-05-06 03:26 -9.94130 -67.88439 3006 ft 225 kts 228°
2026-05-06 03:27 -9.95184 -67.89621 3012 ft 226 kts 228°
2026-05-06 03:27 -9.96236 -67.90802 3008 ft 226 kts 228°
2026-05-06 03:27 -9.97289 -67.91984 3012 ft 226 kts 228°
2026-05-06 03:27 -9.98327 -67.93151 3012 ft 225 kts 228°
2026-05-06 03:28 -9.99377 -67.94333 3010 ft 225 kts 228°
2026-05-06 03:28 -10.00427 -67.95517 3008 ft 226 kts 229°
2026-05-06 03:28 -10.01478 -67.96703 3007 ft 226 kts 228°
2026-05-06 03:28 -10.02531 -67.97889 3005 ft 226 kts 228°
2026-05-06 03:29 -10.03557 -67.99091 3001 ft 225 kts 237°
2026-05-06 03:29 -10.04025 -68.00572 3005 ft 222 kts 273°
2026-05-06 03:29 -10.03588 -68.02037 3014 ft 219 kts 307°
2026-05-06 03:29 -10.02439 -68.03001 3007 ft 216 kts 340°
2026-05-06 03:30 -10.00985 -68.03380 3010 ft 216 kts 348°
2026-05-06 03:30 -9.99534 -68.03707 3010 ft 217 kts 348°
2026-05-06 03:30 -9.98046 -68.03848 3010 ft 216 kts
2026-05-06 03:30 -9.96607 -68.03451 3008 ft 215 kts 27°
2026-05-06 03:31 -9.95407 -68.02561 3010 ft 215 kts 48°
2026-05-06 03:31 -9.94555 -68.01354 2996 ft 204 kts 57°
2026-05-06 03:31 -9.93797 -68.00163 2819 ft 199 kts 57°
2026-05-06 03:31 -9.93060 -67.99008 2618 ft 192 kts 56°
2026-05-06 03:32 -9.92343 -67.97888 2356 ft 186 kts 56°
2026-05-06 03:32 -9.91661 -67.96822 2124 ft 177 kts 56°
2026-05-06 03:32 -9.91021 -67.95822 1925 ft 159 kts 55°
2026-05-06 03:32 -9.90450 -67.94930 1713 ft 143 kts 56°
2026-05-06 03:33 -9.89921 -67.94105 1540 ft 137 kts 55°
2026-05-06 03:33 -9.89399 -67.93291 1366 ft 137 kts 56°
2026-05-06 03:33 -9.88878 -67.92478 1195 ft 137 kts 56°
2026-05-06 03:33 -9.88358 -67.91666 1004 ft 138 kts 56°
2026-05-06 03:34 -9.87840 -67.90850 792 ft 137 kts 57°
2026-05-06 03:34 -9.87328 -67.90045 643 ft 133 kts 57°
2026-05-06 03:34 -9.86891 -67.89373 633 ft 86 kts 57°
2026-05-06 03:34 -9.86731 -67.89105 634 ft 19 kts 72°
2026-05-06 03:35 -9.86698 -67.89080 634 ft 1 kts 292°
2026-05-06 03:35 -9.86706 -67.89095 631 ft 7 kts 238°
2026-05-06 03:35 -9.86759 -67.89169 631 ft 19 kts 236°
2026-05-06 03:35 -9.86764 -67.89306 639 ft 12 kts 281°
2026-05-06 03:36 -9.86748 -67.89379 639 ft 9 kts 282°
2026-05-06 03:36 -9.86735 -67.89438 640 ft 8 kts 283°
2026-05-06 03:36 -9.86723 -67.89496 640 ft 9 kts 282°
2026-05-06 03:36 -9.86709 -67.89561 640 ft 10 kts 282°
2026-05-06 03:37 -9.86735 -67.89628 638 ft 11 kts 238°
2026-05-06 03:37 -9.86733 -67.89663 636 ft 4 kts 320°
2026-05-06 03:37 -9.86712 -67.89677 640 ft 4 kts 327°
2026-05-06 03:37 -9.86707 -67.89681 639 ft 0 kts 327°
2026-05-06 03:38 -9.86705 -67.89682 638 ft 0 kts 327°
2026-05-06 03:38 -9.86703 -67.89684 638 ft 0 kts 327°